Вернуться в каталог

COSMOS 1818 COOLANT

LostLEO
NORAD 50775·DEBRIS·🇷🇺 Russia

Запущен Feb 1, 1987 с Baikonur Cosmodrome

Loading…

Ближайшие Пролёты (ближайшие 24 часа)

TLE

УстаревшееSource: Space-Track

Эпоха: Nov 14, 2022, 07:44 UTC

1 50775U 87011AQ  22318.32286981  .00000578  00000-0  24262-3 0  9995
2 50775  65.0103 295.5951 0014651 270.1647  89.7760 14.33942701469933

Отслеживайте COSMOS 1818 COOLANT в реальном времени с AllMySat

Download on the App Store